Weather History for Billings, MT

Change the Weather History Date:

Sunday, May 19, 2013

  Actual Average Record
Temperature  
Mean Temperature 52 °F 56 °F  
Max Temperature 53 °F 68 °F 92 °F (1992)
Min Temperature 50 °F 45 °F 29 °F (1997)
Degree Days  
Heating Degree Days 13 9  
Month to date heating degree days 160 221  
Since 1 July heating degree days 6252 6598  
Cooling Degree Days 0 1  
Month to date cooling degree days 27 1  
Year to date cooling degree days 27 2  
Growing Degree Days 2 (Base 50)    
Moisture  
Dew Point 49 °F    
Average Humidity 91    
Maximum Humidity 93    
Minimum Humidity 89    
Precipitation  
Precipitation 0.89 in 0.07 in 1.62 in (1938)
Month to date precipitation 1.82 1.29  
Year to date precipitation 3.98 4.97  
Snow  
Snow 0.00 in 0.00 in 0.40 in (1975)
Month to date snowfall T 1.7  
Since 1 July snowfall 40.4 54.7  
Snow Depth 0.00 in    
Sea Level Pressure  
Sea Level Pressure 29.95 in    
Wind  
Wind Speed 16 mph (NW)    
Max Wind Speed 29 mph    
Max Gust Speed 36 mph    
Visibility 9 miles    
Events Rain    
T = Trace of Precipitation, MM = Missing Value Source: NWS Daily Summary

Daily Weather History Graph

Daily Weather History Graph

Search for Another Location

Airport:

Trip Planner

Search our weather history database for the weather conditions in past years. The results will help you decide how hot, cold, wet, or windy it might be!

Date:

Astronomy

May. 19, 2013 Rise Set
Actual Time 5:37 AM MDT 8:44 PM MDT
Civil Twilight 5:02 AM MDT 9:19 PM MDT
Nautical Twilight 4:16 AM MDT 10:05 PM MDT
Astronomical Twilight 3:21 AM MDT 11:01 PM MDT
Moon 2:34 PM MDT (5/19) 2:22 AM MDT (5/19)
Length of Visible Light 16h 17m
Length of Day
15h 06m
Waxing Gibbous, 66% of the Moon is Illuminated
May 19
Waxing Gibbous
May 24
Full
May 31
Last Quarter
Jun 8
New
Jun 16
First Quarter

Hourly Weather History & Observations

Time (MDT) Temp. Dew Point Humidity Pressure Visibility Wind Dir Wind Speed Gust Speed Precip Events Conditions
12:22 AM 53.1 °F 50.0 °F 89% 29.92 in 10.0 mi NW 8.1 mph - 0.00 in Rain Light Rain
12:45 AM 53.1 °F 48.9 °F 86% 29.93 in 10.0 mi NNW 9.2 mph - 0.00 in   Overcast
12:53 AM 53.1 °F 48.9 °F 86% 29.90 in 10.0 mi NW 9.2 mph - 0.00 in   Overcast
1:38 AM 52.0 °F 48.9 °F 89% 29.93 in 10.0 mi WNW 6.9 mph - N/A   Overcast
1:48 AM 51.8 °F 48.2 °F 88% 29.93 in 10.0 mi NW 6.9 mph - 0.00 in Rain Light Rain
1:53 AM 52.0 °F 48.0 °F 86% 29.91 in 10.0 mi WNW 6.9 mph - 0.00 in Rain Light Rain
2:31 AM 52.0 °F 48.0 °F 86% 29.92 in 10.0 mi NW 6.9 mph - 0.01 in Rain Light Rain
2:53 AM 52.0 °F 48.9 °F 89% 29.90 in 8.0 mi WNW 6.9 mph - 0.03 in Rain Light Rain
3:00 AM 52.0 °F 48.9 °F 89% 29.91 in 10.0 mi WNW 8.1 mph - 0.00 in Rain Light Rain
3:53 AM 52.0 °F 48.9 °F 89% 29.90 in 10.0 mi NW 8.1 mph - 0.01 in   Overcast
4:42 AM 52.0 °F 48.9 °F 89% 29.92 in 10.0 mi NNW 11.5 mph - 0.01 in   Overcast
4:53 AM 52.0 °F 48.9 °F 89% 29.90 in 10.0 mi NNW 11.5 mph - 0.01 in   Overcast
5:20 AM 51.1 °F 48.0 °F 89% 29.91 in 10.0 mi NNW 12.7 mph - N/A   Overcast
5:37 AM 51.1 °F 48.9 °F 92% 29.91 in 10.0 mi NNW 15.0 mph - N/A   Overcast
5:53 AM 51.8 °F 48.2 °F 88% 29.91 in 10.0 mi NNW 13.8 mph - N/A   Overcast
6:22 AM 51.1 °F 48.0 °F 89% 29.92 in 10.0 mi NNW 12.7 mph - N/A   Overcast
6:53 AM 51.1 °F 48.0 °F 89% 29.90 in 10.0 mi NNW 11.5 mph - N/A   Overcast
7:05 AM 51.1 °F 48.0 °F 89% 29.92 in 10.0 mi NNW 13.8 mph - N/A   Overcast
7:53 AM 51.1 °F 48.9 °F 92% 29.91 in 10.0 mi NNW 16.1 mph - 0.00 in Rain Light Rain
8:16 AM 51.1 °F 48.9 °F 92% 29.93 in 10.0 mi NNW 16.1 mph - 0.01 in Rain Light Rain
8:53 AM 51.1 °F 48.9 °F 92% 29.92 in 9.0 mi NNW 13.8 mph - 0.03 in Rain Light Rain
9:14 AM 51.1 °F 48.9 °F 92% 29.93 in 6.0 mi NNW 17.3 mph - 0.04 in Rain Rain
9:23 AM 51.1 °F 48.0 °F 89% 29.93 in 6.0 mi NNW 18.4 mph - 0.06 in Rain Rain
9:53 AM 50.0 °F 48.0 °F 93% 29.93 in 4.0 mi NW 15.0 mph - 0.13 in Rain Rain
10:53 AM 51.1 °F 48.0 °F 89% 29.93 in 6.0 mi NW 18.4 mph 25.3 mph 0.11 in Rain Light Rain
11:53 AM 50.0 °F 48.0 °F 93% 29.92 in 6.0 mi NW 23.0 mph - 0.09 in Rain Rain
12:53 PM 51.8 °F 48.2 °F 88% 29.94 in 9.0 mi NNW 26.5 mph 34.5 mph N/A Rain Light Rain
1:39 PM 51.1 °F 48.0 °F 89% 29.95 in 6.0 mi NW 19.6 mph 27.6 mph 0.04 in Rain Rain
1:53 PM 51.8 °F 48.2 °F 88% 29.95 in 10.0 mi NNW 24.2 mph 29.9 mph N/A Rain Light Rain
2:53 PM 53.1 °F 50.0 °F 89% 29.94 in 7.0 mi NNW 20.7 mph - 0.08 in Rain Light Rain
3:53 PM 52.0 °F 48.0 °F 86% 29.96 in 10.0 mi NW 26.5 mph 32.2 mph 0.03 in Rain Light Rain
4:53 PM 52.0 °F 48.9 °F 89% 29.98 in 5.0 mi NW 20.7 mph - 0.04 in Rain Rain
5:53 PM 52.0 °F 50.0 °F 93% 29.99 in 10.0 mi NNW 15.0 mph - 0.06 in   Overcast
6:25 PM 52.0 °F 50.0 °F 93% 30.01 in 2.5 mi North 15.0 mph - 0.04 in Rain Heavy Rain
6:38 PM 52.0 °F 50.0 °F 93% 30.01 in 6.0 mi NNW 15.0 mph - 0.06 in Rain Light Rain
6:53 PM 52.0 °F 50.0 °F 93% 30.00 in 10.0 mi NNW 13.8 mph - 0.07 in Rain Light Rain
7:23 PM 52.0 °F 48.9 °F 89% 30.02 in 10.0 mi NNW 16.1 mph - 0.02 in Rain Light Rain
7:53 PM 52.0 °F 48.9 °F 89% 30.01 in 10.0 mi NNW 15.0 mph - 0.04 in Rain Light Rain
8:53 PM 52.0 °F 48.9 °F 89% 30.03 in 10.0 mi NNW 13.8 mph - 0.00 in Rain Light Rain
9:53 PM 50.0 °F 46.4 °F 87% 30.04 in 10.0 mi NNW 15.0 mph - N/A   Overcast
10:53 PM 50.0 °F 46.9 °F 89% 30.04 in 10.0 mi NNW 15.0 mph - 0.00 in Rain Light Rain
11:53 PM 50.0 °F 46.9 °F 89% 30.04 in 10.0 mi NW 16.1 mph - 0.03 in   Overcast